This is the latest recevied weather packets stored in our database for station/object PA5MB-15. If no packets are shown the sender has not sent any weather packets the latest 1 day(s).
| Time | Temp. | Humidity | Pressure | Rain* | Wind** | Luminosity | Snow |
|---|---|---|---|---|---|---|---|
| 1778013032 | 11.11° C | 82% | 1011.4 hPa | 0 mm | 1.34 m/s, 3° | 0 W/m² | - |
| 1778012732 | 11.11° C | 82% | 1011.3 hPa | 0 mm | 1.79 m/s, 13° | 0 W/m² | - |
| 1778012430 | 11.11° C | 82% | 1011.3 hPa | 0 mm | 1.34 m/s, 8° | 0 W/m² | - |
| 1778012133 | 11.11° C | 82% | 1011.4 hPa | 0 mm | 1.34 m/s, 4° | 0 W/m² | - |
| 1778011844 | 11.11° C | 82% | 1011.3 hPa | 0 mm | 1.79 m/s, 337° | 0 W/m² | - |
| 1778011532 | 11.11° C | 81% | 1011.2 hPa | 0 mm | 1.34 m/s, 11° | 0 W/m² | - |
| 1778011232 | 11.11° C | 81% | 1011.2 hPa | 0 mm | 1.34 m/s, 360° | 0 W/m² | - |
| 1778010932 | 11.67° C | 81% | 1011.2 hPa | 0 mm | 1.79 m/s, 349° | 0 W/m² | - |
| 1778010644 | 11.67° C | 82% | 1011.2 hPa | 0 mm | 1.34 m/s, 344° | 0 W/m² | - |
| 1778010332 | 11.67° C | 81% | 1011.1 hPa | 0 mm | 1.79 m/s, 5° | 0 W/m² | - |
| 1778010035 | 11.67° C | 81% | 1011.1 hPa | 0 mm | 1.34 m/s, 359° | 0 W/m² | - |
| 1778009731 | 11.67° C | 81% | 1011.1 hPa | 0 mm | 0.89 m/s, 10° | 0 W/m² | - |
| 1778009443 | 11.67° C | 80% | 1011.1 hPa | 0 mm | 1.79 m/s, 350° | 0 W/m² | - |
| 1778009132 | 11.67° C | 80% | 1010.9 hPa | 0 mm | 1.34 m/s, 8° | 0 W/m² | - |
| 1778008832 | 11.67° C | 80% | 1010.9 hPa | 0 mm | 1.79 m/s, 8° | 0 W/m² | - |
| 1778008533 | 11.67° C | 80% | 1010.9 hPa | 0 mm | 1.79 m/s, 12° | 0 W/m² | - |
| 1778008233 | 12.22° C | 79% | 1010.9 hPa | 0 mm | 1.79 m/s, 357° | 0 W/m² | - |
| 1778007936 | 12.22° C | 79% | 1010.8 hPa | 0 mm | 1.79 m/s, 351° | 0 W/m² | - |
| 1778007632 | 12.22° C | 78% | 1010.8 hPa | 0 mm | 1.34 m/s, 0° | 1 W/m² | - |
| 1778007331 | 12.22° C | 78% | 1010.7 hPa | 0 mm | 1.34 m/s, 0° | 1 W/m² | - |
| 1778007031 | 12.22° C | 77% | 1010.7 hPa | 0 mm | 1.34 m/s, 350° | 1 W/m² | - |
| 1778006727 | 12.22° C | 77% | 1010.6 hPa | 0 mm | 1.79 m/s, 347° | 1 W/m² | - |
| 1778006431 | 12.22° C | 77% | 1010.6 hPa | 0 mm | 1.79 m/s, 359° | 1 W/m² | - |
| 1778006133 | 12.78° C | 77% | 1010.6 hPa | 0 mm | 2.24 m/s, 341° | 2 W/m² | - |
| 1778005844 | 12.78° C | 77% | 1010.6 hPa | 0 mm | 2.24 m/s, 357° | 2 W/m² | - |
* Rain latest hour (hover to see other rain measurements)
** Current wind speed in m/s (hover to see current wind gust speed)